Harlan, KY

7:31 AM EST on November 15, 2019 (GMT -0500)
Harlan

Weather History for KI35 - September, 2019

Change the Weather History Date:

Tuesday, September 3, 2019

  Actual Average (WUND) Record (WUND)
Temperature  
Mean Temperature 74 °F -  
Max Temperature 87 °F - - (-1)
Min Temperature 63 °F - - (-1)
Cooling Degree Days 10    
Growing Degree Days 24 (Base 50)    
Moisture  
Dew Point 65 °F    
Average Humidity 79    
Maximum Humidity 100    
Minimum Humidity 43    
Precipitation  
Precipitation 0.00 in - - ()
Sea Level Pressure  
Sea Level Pressure 30.09 in    
Wind  
Wind Speed 1 mph ()    
Max Wind Speed 7 mph    
Max Gust Speed -    
Visibility 6.4 miles    
Events      
Averages and records for this station are not official NWS values.
T = Trace of Precipitation, MM = Missing Value Source: Averaged Metar Reports

Daily Weather History Graph

Daily Weather History Graph

Search for Another Location

Airport or City:

Astronomy

Sep. 03, 2019 Rise Set
Actual Time 7:05 AM EDT 7:59 PM EDT
Civil Twilight 6:39 AM EDT 8:25 PM EDT
Nautical Twilight 6:08 AM EDT 8:56 PM EDT
Astronomical Twilight 5:35 AM EDT 9:29 PM EDT
Moon 11:50 AM EDT (9/3) 11:03 PM EDT (9/3)
Length of Visible Light 13h 46m
Length of Day
12h 53m
Waxing Crescent, 24% of the Moon is Illuminated
Sep 3
Waxing Crescent
Sep 5
First Quarter
Sep 14
Full
Sep 21
Last Quarter
Sep 28
New

Hourly Weather History & Observations

Time (EDT) Temp. Heat Index Dew Point Humidity Pressure Visibility Wind Dir Wind Speed Gust Speed Precip Events Conditions
12:15 AM 68.0 °F - 67.3 °F 98% 30.12 in 7.0 mi Calm Calm - N/A   Clear
12:35 AM 67.8 °F - 67.3 °F 98% 30.11 in 5.0 mi Calm Calm - N/A   Clear
12:55 AM 67.1 °F - 66.6 °F 98% 30.11 in 5.0 mi Calm Calm - N/A   Scattered Clouds
1:15 AM 67.3 °F - 66.9 °F 99% 30.11 in 3.0 mi Calm Calm - N/A   Scattered Clouds
1:35 AM 66.7 °F - 66.2 °F 98% 30.11 in 5.0 mi Calm Calm - N/A   Mostly Cloudy
1:55 AM 66.4 °F - 66.2 °F 99% 30.12 in 0.8 mi Calm Calm - N/A   Overcast
2:15 AM 66.4 °F - 66.2 °F 99% 30.11 in 1.5 mi Calm Calm - N/A   Overcast
2:35 AM 66.4 °F - 66.2 °F 99% 30.10 in 0.2 mi Calm Calm - N/A   Overcast
2:55 AM 66.6 °F - 66.4 °F 99% 30.10 in 0.8 mi Calm Calm - N/A   Overcast
3:15 AM 66.2 °F - 65.8 °F 99% 30.09 in 0.2 mi Calm Calm - N/A   Overcast
3:55 AM 65.8 °F - 65.7 °F 99% 30.09 in 0.2 mi Calm Calm - N/A   Overcast
4:35 AM 65.5 °F - 65.3 °F 99% 30.08 in 0.5 mi Calm Calm - N/A   Overcast
4:55 AM 65.3 °F - 65.3 °F 100% 30.08 in 0.2 mi Calm Calm - N/A   Overcast
5:15 AM 65.5 °F - 65.5 °F 100% 30.08 in 0.2 mi Calm Calm - N/A   Overcast
5:35 AM 65.3 °F - 65.3 °F 100% 30.08 in 0.2 mi Calm Calm - N/A   Overcast
5:55 AM 65.1 °F - 65.1 °F 100% 30.08 in 0.2 mi Calm Calm - N/A   Overcast
6:15 AM 64.9 °F - 64.8 °F 99% 30.09 in 0.5 mi Calm Calm - N/A   Overcast
6:35 AM 64.4 °F - 64.4 °F 100% 30.10 in 0.5 mi Calm Calm - N/A   Overcast
6:55 AM 64.8 °F - 64.8 °F 100% 30.10 in 0.5 mi Calm Calm - N/A   Overcast
7:15 AM 64.6 °F - 64.6 °F 100% 30.11 in 0.8 mi Calm Calm - N/A   Overcast
7:35 AM 63.9 °F - 63.9 °F 100% 30.12 in 0.2 mi NE 3.5 mph - N/A   Overcast
7:55 AM 63.9 °F - 63.9 °F 100% 30.12 in 0.2 mi Calm Calm - N/A   Overcast
8:15 AM 64.6 °F - 64.6 °F 100% 30.13 in 0.2 mi Calm Calm - N/A   Overcast
8:35 AM 64.8 °F - 64.8 °F 100% 30.13 in 0.5 mi Calm Calm - N/A   Overcast
8:55 AM 64.8 °F - 64.6 °F 99% 30.12 in 0.8 mi Calm Calm - N/A   Overcast
9:15 AM 65.1 °F - 64.8 °F 99% 30.12 in 1.0 mi Calm Calm - N/A   Overcast
9:35 AM 65.8 °F - 64.9 °F 97% 30.12 in 1.8 mi Calm Calm - N/A   Overcast
9:55 AM 66.0 °F - 64.8 °F 96% 30.12 in 7.0 mi Calm Calm - N/A   Overcast
10:35 AM 69.8 °F - 65.5 °F 86% 30.12 in 10.0 mi Calm Calm - N/A   Scattered Clouds
10:55 AM 73.2 °F - 66.2 °F 79% 30.12 in 10.0 mi Calm Calm - N/A   Clear
11:15 AM 75.2 °F - 65.7 °F 72% 30.11 in 10.0 mi Calm Calm - N/A   Clear
11:35 AM 77.7 °F - 66.9 °F 69% 30.11 in 10.0 mi Calm Calm - N/A   Clear
11:55 AM 79.2 °F - 66.6 °F 65% 30.11 in 10.0 mi Calm Calm - N/A   Clear
12:15 PM 80.2 °F 82.2 °F 65.5 °F 61% 30.11 in 10.0 mi Calm Calm - N/A   Clear
12:35 PM 80.8 °F 82.1 °F 63.3 °F 55% 30.11 in 10.0 mi Calm Calm - N/A   Clear
12:55 PM 82.4 °F 83.9 °F 64.4 °F 54% 30.11 in 10.0 mi Calm Calm - N/A   Clear
1:15 PM 84.0 °F 84.0 °F 60.1 °F 44% 30.10 in 10.0 mi Calm Calm - N/A   Clear
1:35 PM 84.0 °F 84.5 °F 62.1 °F 47% 30.10 in 10.0 mi SW 6.9 mph - N/A   Clear
1:55 PM 83.7 °F 84.3 °F 61.9 °F 48% 30.10 in 10.0 mi SW 4.6 mph - N/A   Clear
2:15 PM 84.7 °F 85.4 °F 62.4 °F 47% 30.09 in 10.0 mi SW 4.6 mph - N/A   Clear
2:35 PM 85.6 °F 86.3 °F 62.4 °F 46% 30.09 in 10.0 mi West 4.6 mph - N/A   Clear
2:55 PM 85.5 °F 85.7 °F 61.5 °F 44% 30.08 in 10.0 mi SW 3.5 mph - N/A   Clear
3:15 PM 86.2 °F 86.8 °F 62.2 °F 45% 30.07 in 10.0 mi WSW 4.6 mph - N/A   Clear
3:55 PM 86.4 °F 87.0 °F 62.6 °F 45% 30.05 in 10.0 mi SSW 4.6 mph - N/A   Clear
4:15 PM 86.9 °F 87.5 °F 62.6 °F 44% 30.05 in 10.0 mi SSW 3.5 mph - N/A   Clear
4:35 PM 86.9 °F 87.5 °F 62.4 °F 44% 30.05 in 10.0 mi NW 3.5 mph - N/A   Clear
5:15 PM 86.5 °F 87.6 °F 63.5 °F 46% 30.04 in 10.0 mi Calm Calm - N/A   Clear
5:35 PM 85.8 °F 86.6 °F 62.8 °F 46% 30.05 in 10.0 mi West 3.5 mph - N/A   Clear
5:55 PM 86.9 °F 87.2 °F 61.9 °F 43% 30.05 in 10.0 mi West 4.6 mph - N/A   Clear
6:15 PM 86.7 °F 87.0 °F 61.9 °F 43% 30.04 in 10.0 mi West 5.8 mph - N/A   Clear
6:35 PM 85.6 °F 86.3 °F 63.0 °F 46% 30.03 in 10.0 mi SW 3.5 mph - N/A   Clear
6:55 PM 84.9 °F 86.1 °F 64.0 °F 49% 30.04 in 10.0 mi Calm Calm - N/A   Clear
7:15 PM 82.8 °F 84.7 °F 65.8 °F 56% 30.03 in 10.0 mi Calm Calm - N/A   Clear
7:35 PM 80.8 °F 82.6 °F 65.3 °F 59% 30.04 in 10.0 mi Calm Calm - N/A   Clear
7:55 PM 76.8 °F - 65.7 °F 68% 30.05 in 10.0 mi Calm Calm - N/A   Clear
8:15 PM 75.9 °F - 65.8 °F 71% 30.06 in 10.0 mi Calm Calm - N/A   Clear
8:35 PM 73.4 °F - 66.2 °F 78% 30.06 in 10.0 mi Calm Calm - N/A   Clear
8:55 PM 73.2 °F - 65.8 °F 78% 30.05 in 10.0 mi Calm Calm - N/A   Clear
9:15 PM 70.7 °F - 66.7 °F 87% 30.05 in 10.0 mi Calm Calm - N/A   Clear
9:35 PM 70.2 °F - 67.1 °F 90% 30.06 in 10.0 mi Calm Calm - N/A   Clear
9:55 PM 69.3 °F - 67.1 °F 93% 30.07 in 10.0 mi Calm Calm - N/A   Clear
10:35 PM 68.2 °F - 66.6 °F 95% 30.08 in 10.0 mi Calm Calm - N/A   Clear
10:55 PM 67.6 °F - 66.6 °F 96% 30.09 in 10.0 mi Calm Calm - N/A   Clear
11:15 PM 67.3 °F - 66.2 °F 96% 30.08 in 10.0 mi Calm Calm - N/A   Clear
11:35 PM 66.7 °F - 66.0 °F 98% 30.07 in 10.0 mi Calm Calm - N/A   Clear
11:55 PM 66.0 °F - 65.3 °F 98% 30.07 in 7.0 mi NE 4.6 mph - N/A   Clear